[[{"header":{"parameterUnit":"m.s-1","parameterCategory":1,"la1":30.2991,"la2":30.254,"lo1":-89.0895,"lo2":-89.0444,"dy":0.0017,"dx":0.0017,"nx":28,"ny":28,"refTime":"2025-01-22T03:00:00:Z","depth":0,"parameterNumber":2,"parameterNumberName":"U-component_of_WINDS"},"data":[0,0,0,0,0,0,0,0,0,0,0,0,0,0,0,0,0,0,0,0,0,0,0,0,0,0,0,0,0,0,0,0,0,0,0,0,0,0,0,0,0,0,0,0,0,0,0,0,0,0,0,0,0,0,0,0,0,0,-0.0513,-0.0514,0,-0.0657,-0.0659,-0.066,-0.0706,-0.0706,-0.0705,-0.0704,-0.0854,-0.0859,-0.0864,0,0,0,0,0,0,0,0,0,0,0,0,0,-0.0277,-0.0281,-0.0512,-0.0514,-0.0516,-0.0657,-0.0659,-0.0661,-0.0706,-0.0706,-0.0705,-0.0704,-0.0853,-0.0858,-0.0864,0,0,0,0,0,0,0,0,0,0,0,0,0,-0.0396,-0.0283,-0.0512,-0.0556,-0.0561,-0.0657,-0.0659,-0.0661,-0.0707,-0.0705,-0.0704,-0.0704,-0.0851,-0.0858,-0.0865,-0.0928,0,0,-0.0886,-0.0889,0,0,0,0,0,0,0,0,-0.039,-0.0405,-0.0547,-0.0553,-0.0559,-0.0663,-0.0631,-0.0751,-0.0707,-0.0651,-0.0704,-0.0703,-0.0792,-0.0803,-0.0833,-0.0935,-0.0942,-0.0887,-0.0891,-0.0894,-0.0896,0,0,0,0,0,0,0,-0.0381,-0.0399,-0.057,-0.0549,-0.0556,-0.0569,-0.0584,-0.0654,-0.0725,-0.0656,-0.066,-0.0676,-0.0795,-0.0826,-0.0837,-0.0944,-0.0886,-0.0893,-0.0897,-0.09,-0.1105,-0.1106,0,0,0,0,0,0,-0.0365,-0.0392,-0.0565,-0.0574,-0.047,-0.0574,-0.0591,-0.063,-0.0725,-0.0738,-0.0677,-0.0678,-0.0815,-0.0829,-0.0842,-0.0922,-0.0894,-0.09,-0.0904,-0.1104,-0.1105,-0.1107,0,0,0,0,0,0,-0.036,-0.038,-0.0559,-0.0484,-0.0508,-0.0579,-0.0622,-0.0634,-0.0665,-0.0741,-0.0754,-0.0696,-0.0814,-0.0832,-0.0906,-0.0928,-0.0903,-0.091,-0.1102,-0.1104,-0.1106,-0.1083,0,0,0,0,0,0,-0.0353,-0.0378,-0.0403,-0.0484,-0.0512,-0.062,-0.0624,-0.0637,-0.0677,-0.0679,-0.0762,-0.0774,-0.0815,-0.0896,-0.0913,-0.0937,-0.0915,-0.1101,-0.1103,-0.1105,-0.1082,-0.1084,-0.1085,0,0,0,0,0,-0.0345,-0.0391,-0.0404,-0.0424,-0.0543,-0.0621,-0.0637,-0.0682,-0.0678,-0.0704,-0.0752,-0.0772,-0.0923,-0.0903,-0.0923,-0.0949,-0.11,-0.1102,-0.1105,-0.1081,-0.1083,-0.1085,0,0,0,0,0,0,-0.0311,-0.0402,-0.0417,-0.0491,-0.0548,-0.0629,-0.0662,-0.0683,-0.0743,-0.0743,-0.0797,-0.0815,-0.0885,-0.0925,-0.0901,-0.1016,-0.1012,-0.1019,-0.0987,-0.099,-0.0991,-0.098,-0.0921,0,0,0,0,0,-0.0312,-0.0367,-0.0444,-0.0502,-0.053,-0.0591,-0.0627,-0.0656,-0.0718,-0.0742,-0.0796,-0.0855,-0.0916,-0.0955,-0.1015,-0.1088,-0.1107,-0.1116,-0.1118,-0.1119,-0.1124,-0.1165,-0.117,-0.1116,-0.1116,-0.1116,0,0,-0.0315,-0.0371,-0.0403,-0.0497,-0.0544,-0.06,-0.0611,-0.067,-0.0713,-0.0752,-0.0824,-0.0866,-0.0936,-0.1009,-0.1044,-0.1044,-0.1143,-0.1123,-0.1123,-0.1128,-0.1169,-0.1174,-0.1178,-0.1118,-0.1118,-0.1118,0,0,-0.0348,-0.0397,-0.045,-0.0497,-0.0569,-0.0609,-0.0622,-0.07,-0.0729,-0.0802,-0.0833,-0.0884,-0.0988,-0.1036,-0.1074,-0.1126,-0.1146,-0.1144,-0.1153,-0.1192,-0.1196,-0.12,-0.1219,-0.1224,-0.1149,-0.1149,-0.1149,0,-0.0343,-0.0429,-0.0475,-0.0533,-0.0573,-0.061,-0.0664,-0.0708,-0.0796,-0.0823,-0.0822,-0.0953,-0.1002,-0.1087,-0.11,-0.113,-0.1146,-0.1135,-0.1192,-0.1196,-0.1201,-0.1219,-0.1225,-0.1149,-0.1149,-0.1149,-0.1149,0,-0.0418,-0.0477,-0.0512,-0.0594,-0.0639,-0.0694,-0.075,-0.0789,-0.0815,-0.0856,-0.093,-0.0991,-0.1064,-0.1086,-0.1113,-0.1175,-0.1173,-0.1181,-0.1179,-0.1204,-0.1222,-0.1229,-0.1148,-0.1148,-0.1148,-0.1148,0,0,-0.0435,-0.0542,-0.0554,-0.0592,-0.0674,-0.072,-0.0778,-0.0848,-0.0881,-0.094,-0.099,-0.1077,-0.1085,-0.1128,-0.116,-0.1194,-0.1231,-0.1199,-0.1201,-0.1202,-0.1303,-0.1296,-0.1303,-0.1245,-0.1246,-0.1248,-0.1297,0,-0.0479,-0.0582,-0.0626,-0.0709,-0.0764,-0.08,-0.085,-0.0906,-0.0945,-0.0998,-0.1042,-0.1102,-0.1109,-0.1135,-0.1171,-0.1219,-0.1252,-0.1216,-0.1292,-0.1294,-0.1273,-0.1313,-0.1305,-0.1349,-0.1304,-0.1306,-0.1307,0,-0.0544,-0.0603,-0.0692,-0.0766,-0.0791,-0.0835,-0.0903,-0.0953,-0.1017,-0.1043,-0.1091,-0.1121,-0.1183,-0.1176,-0.1262,-0.1237,-0.1271,-0.1299,-0.1302,-0.131,-0.1301,-0.1322,-0.1364,-0.1371,-0.1318,-0.1317,-0.1316,0,-0.0547,-0.0648,-0.0714,-0.0746,-0.0834,-0.0865,-0.0903,-0.0966,-0.1005,-0.1065,-0.1091,-0.1158,-0.1194,-0.1245,-0.1292,-0.1283,-0.1373,-0.1371,-0.1397,-0.1396,-0.1414,-0.1413,-0.1462,-0.1436,-0.1436,-0.1436,-0.1436,0,-0.0591,-0.0644,-0.0717,-0.0757,-0.0817,-0.0867,-0.0926,-0.0967,-0.1022,-0.1072,-0.1107,-0.1153,-0.1213,-0.1266,-0.1304,-0.1369,-0.1386,-0.1409,-0.1418,-0.1405,-0.1402,-0.1428,-0.1426,-0.1438,-0.1438,-0.1437,-0.1437,0,-0.0604,-0.0655,-0.0729,-0.0807,-0.0828,-0.0869,-0.0935,-0.0976,-0.1017,-0.1079,-0.1097,-0.1161,-0.1226,-0.1278,-0.1363,-0.1389,-0.1457,-0.1468,-0.1435,-0.144,-0.1463,-0.146,-0.1531,-0.1542,-0.1509,-0.1509,-0.1509,0,-0.0629,-0.067,-0.0752,-0.0787,-0.0825,-0.0882,-0.0922,-0.0973,-0.1013,-0.1089,-0.1121,-0.1188,-0.1244,-0.1346,-0.1401,-0.1466,-0.1478,-0.1499,-0.1488,-0.1474,-0.1478,-0.1475,-0.1479,-0.1499,-0.15,-0.15,-0.15,0,-0.0668,-0.0691,-0.0747,-0.0812,-0.0859,-0.0913,-0.0968,-0.0995,-0.1055,-0.1099,-0.1165,-0.1209,-0.1295,-0.1361,-0.1432,-0.1472,-0.1496,-0.1503,-0.1512,-0.1499,-0.1479,-0.149,-0.1438,-0.1501,-0.1501,-0.1501,-0.1501,-0.15,-0.0687,-0.0726,-0.0789,-0.085,-0.0897,-0.0947,-0.0989,-0.1035,-0.1091,-0.1164,-0.1191,-0.1259,-0.1322,-0.1419,-0.146,-0.1514,-0.1516,-0.153,-0.1533,-0.1536,-0.1534,-0.147,-0.1527,-0.1527,-0.1527,-0.1527,-0.1527,0,-0.0727,-0.077,-0.0826,-0.0901,-0.0949,-0.0967,-0.1028,-0.1068,-0.1127,-0.1183,-0.1238,-0.1314,-0.1378,-0.1437,-0.1504,-0.1536,-0.1549,-0.1552,-0.155,-0.1559,-0.1528,-0.1513,-0.1541,-0.1541,-0.1541,-0.1541,-0.1541,-0.1541,-0.0754,-0.0819,-0.0849,-0.0938,-0.0981,-0.1047,-0.108,-0.1127,-0.1172,-0.1255,-0.1308,-0.1346,-0.1404,-0.1476,-0.1535,-0.1551,-0.1574,-0.1574,-0.1593,-0.1563,-0.1561,-0.1559,-0.1545,-0.1579,-0.1579,-0.1619,-0.162,-0.162]},{"header":{"parameterUnit":"m.s-1","parameterCategory":1,"la1":30.2991,"la2":30.254,"lo1":-89.0895,"lo2":-89.0444,"dy":0.0017,"dx":0.0017,"nx":28,"ny":28,"refTime":"2025-01-22T03:00:00:Z","depth":0,"parameterNumber":3,"parameterNumberName":"V-component_of_WINDS"},"data":[0,0,0,0,0,0,0,0,0,0,0,0,0,0,0,0,0,0,0,0,0,0,0,0,0,0,0,0,0,0,0,0,0,0,0,0,0,0,0,0,0,0,0,0,0,0,0,0,0,0,0,0,0,0,0,0,0,0,-3.9882,-3.9882,0,-3.9927,-3.9928,-3.9928,-3.9868,-3.9866,-3.9864,-3.9862,-3.9908,-3.9911,-3.9914,0,0,0,0,0,0,0,0,0,0,0,0,0,-3.9739,-3.9742,-3.9882,-3.9882,-3.9883,-3.9927,-3.9928,-3.9929,-3.9869,-3.9866,-3.9863,-3.9861,-3.9906,-3.991,-3.9914,0,0,0,0,0,0,0,0,0,0,0,0,0,-3.9794,-3.9743,-3.9881,-3.9858,-3.9857,-3.9927,-3.9928,-3.9929,-3.9869,-3.9866,-3.9863,-3.986,-3.9905,-3.991,-3.9915,-4.001,0,0,-3.993,-3.9932,0,0,0,0,0,0,0,0,-3.9791,-3.98,-3.9861,-3.986,-3.9858,-3.9889,-3.9894,-3.9956,-3.987,-3.9864,-3.9862,-3.9858,-3.9904,-3.9909,-3.9924,-4.0012,-4.0014,-3.993,-3.9933,-3.9935,-3.9936,0,0,0,0,0,0,0,-3.9788,-3.9797,-3.99,-3.9862,-3.986,-3.9844,-3.9849,-3.9906,-3.9902,-3.9865,-3.986,-3.9867,-3.9902,-3.992,-3.9925,-4.0015,-3.993,-3.9934,-3.9937,-3.9939,-4.0179,-4.0183,0,0,0,0,0,0,-3.9787,-3.9795,-3.9898,-3.9901,-3.9816,-3.985,-3.9854,-3.9882,-3.9901,-3.9901,-3.9869,-3.9864,-3.9913,-3.9919,-3.9926,-4.0036,-3.9935,-3.994,-3.9942,-4.0176,-4.018,-4.0184,0,0,0,0,0,0,-3.9784,-3.9797,-3.9896,-3.9847,-3.9858,-3.9856,-3.9887,-3.9885,-3.9902,-3.9905,-3.9903,-3.9888,-3.9911,-3.9919,-3.9989,-4.0037,-3.9942,-3.9946,-4.0172,-4.0177,-4.0182,-4.0259,0,0,0,0,0,0,-3.978,-3.9796,-3.9833,-3.9848,-3.9861,-3.9959,-3.989,-3.9888,-3.9911,-3.9904,-3.9922,-3.9922,-3.9909,-3.9982,-3.9994,-4.0042,-3.995,-4.0167,-4.0174,-4.018,-4.0252,-4.0266,-4.0278,0,0,0,0,0,-3.9775,-3.9854,-3.9835,-3.9848,-3.9908,-3.9962,-3.997,-3.9954,-3.9915,-3.9951,-3.9953,-3.9921,-4.0031,-3.999,-4.0002,-4.0053,-4.0164,-4.0172,-4.018,-4.0246,-4.0264,-4.0278,0,0,0,0,0,0,-3.9845,-3.9855,-3.9835,-3.9921,-3.9941,-3.9952,-3.9998,-3.9973,-4.0005,-3.9997,-3.9975,-3.998,-4.0053,-4.006,-4.0015,-4.0144,-4.0091,-4.0102,-4.0137,-4.0153,-4.0166,-4.0162,-3.9954,0,0,0,0,0,-3.987,-3.9914,-3.9921,-3.9996,-4.0007,-4.0001,-4.0024,-4.001,-4.003,-4.0038,-4.0044,-4.0065,-4.0103,-4.0129,-4.0165,-4.0253,-4.0255,-4.0294,-4.0307,-4.0318,-4.0327,-4.0371,-4.0388,-4.0209,-4.0209,-4.0209,0,0,-3.9923,-3.9934,-3.9963,-4.001,-4.0024,-4.0069,-4.0008,-4.0059,-4.0092,-4.0046,-4.0111,-4.0116,-4.0137,-4.0216,-4.0251,-4.0224,-4.0377,-4.0328,-4.0337,-4.034,-4.0381,-4.0398,-4.0413,-4.0215,-4.0214,-4.0213,0,0,-4.0041,-4.0055,-4.0117,-4.0132,-4.0154,-4.0149,-4.0164,-4.0179,-4.018,-4.0245,-4.0211,-4.0249,-4.0317,-4.0332,-4.0348,-4.047,-4.0441,-4.0483,-4.055,-4.0593,-4.0607,-4.062,-4.066,-4.0675,-4.0492,-4.0492,-4.0492,0,-4.0103,-4.017,-4.0153,-4.0205,-4.0225,-4.0185,-4.0247,-4.0262,-4.0295,-4.0309,-4.0279,-4.0361,-4.0372,-4.0452,-4.0482,-4.0498,-4.0512,-4.048,-4.0607,-4.0619,-4.063,-4.0669,-4.0684,-4.0497,-4.0496,-4.0496,-4.0495,0,-4.0245,-4.0291,-4.0339,-4.037,-4.0396,-4.0453,-4.0442,-4.0471,-4.0454,-4.0451,-4.0517,-4.0529,-4.0565,-4.0584,-4.0568,-4.0661,-4.0643,-4.0611,-4.0556,-4.0652,-4.0688,-4.0703,-4.0503,-4.0502,-4.05,-4.0499,0,0,-4.0408,-4.0427,-4.0445,-4.0457,-4.0477,-4.0513,-4.0567,-4.0602,-4.0625,-4.0649,-4.0692,-4.0749,-4.0718,-4.0737,-4.0723,-4.0762,-4.0853,-4.0724,-4.0724,-4.0745,-4.0952,-4.0975,-4.0992,-4.0835,-4.0838,-4.084,-4.095,0,-4.0524,-4.0618,-4.0602,-4.0692,-4.0733,-4.0695,-4.0742,-4.0758,-4.0757,-4.0791,-4.079,-4.083,-4.0788,-4.0798,-4.0835,-4.0834,-4.0894,-4.0827,-4.0873,-4.0874,-4.0866,-4.1011,-4.1036,-4.1139,-4.0964,-4.0966,-4.0968,0,-4.0672,-4.07,-4.0794,-4.0804,-4.0821,-4.0863,-4.0892,-4.0927,-4.0944,-4.094,-4.096,-4.0938,-4.099,-4.0936,-4.1006,-4.096,-4.0978,-4.0981,-4.0984,-4.0986,-4.0925,-4.1014,-4.1172,-4.1186,-4.099,-4.0988,-4.0987,0,-4.0778,-4.0839,-4.0902,-4.0914,-4.093,-4.0959,-4.0967,-4.0981,-4.1002,-4.1028,-4.1041,-4.1073,-4.109,-4.1114,-4.11,-4.1063,-4.1172,-4.1117,-4.1168,-4.1168,-4.1191,-4.1189,-4.1351,-4.1207,-4.1207,-4.1207,-4.1207,0,-4.0908,-4.0966,-4.0949,-4.0988,-4.1051,-4.1032,-4.1095,-4.1098,-4.1111,-4.1148,-4.1118,-4.1153,-4.1134,-4.1168,-4.1158,-4.1216,-4.1224,-4.1221,-4.1217,-4.1223,-4.1222,-4.1232,-4.1224,-4.1211,-4.121,-4.1209,-4.1209,0,-4.1037,-4.1028,-4.1094,-4.1102,-4.1105,-4.1151,-4.1158,-4.1193,-4.1189,-4.1237,-4.1247,-4.1241,-4.1278,-4.1268,-4.1309,-4.1302,-4.1374,-4.1363,-4.1368,-4.1364,-4.1415,-4.1409,-4.1586,-4.1607,-4.1453,-4.1454,-4.1455,0,-4.1119,-4.1162,-4.1175,-4.1197,-4.1207,-4.1244,-4.1265,-4.1247,-4.127,-4.1292,-4.1324,-4.1359,-4.1386,-4.1448,-4.1446,-4.1477,-4.1464,-4.1524,-4.1469,-4.1471,-4.1461,-4.1458,-4.1461,-4.1534,-4.1536,-4.1538,-4.1539,0,-4.1264,-4.1257,-4.1289,-4.1318,-4.1344,-4.1366,-4.1386,-4.1406,-4.1389,-4.1416,-4.1454,-4.1475,-4.1516,-4.155,-4.1578,-4.1585,-4.1558,-4.1557,-4.1569,-4.1574,-4.1574,-4.1571,-4.1395,-4.1552,-4.1551,-4.155,-4.1549,-4.1549,-4.137,-4.1406,-4.1419,-4.1454,-4.1467,-4.1485,-4.1517,-4.1517,-4.1549,-4.158,-4.1568,-4.1611,-4.1624,-4.1659,-4.1669,-4.1701,-4.1678,-4.1698,-4.1702,-4.1706,-4.1711,-4.1571,-4.1707,-4.1706,-4.1706,-4.1706,-4.1705,0,-4.1511,-4.1518,-4.155,-4.1577,-4.1605,-4.1578,-4.1597,-4.1621,-4.1659,-4.1674,-4.1701,-4.1743,-4.1776,-4.1777,-4.1807,-4.1832,-4.182,-4.184,-4.1837,-4.1838,-4.1732,-4.1716,-4.1849,-4.1849,-4.1849,-4.1849,-4.1849,-4.1849,-4.1588,-4.1646,-4.164,-4.1703,-4.1708,-4.175,-4.1763,-4.1779,-4.179,-4.1838,-4.1865,-4.1865,-4.1874,-4.1904,-4.1932,-4.1931,-4.1942,-4.1966,-4.196,-4.186,-4.1846,-4.1832,-4.1817,-4.1969,-4.1969,-4.2063,-4.2064,-4.2065]}]]